TimeEDT,TemperatureF,Dew PointF,Humidity,Sea Level PressureIn,VisibilityMPH,Wind Direction,Wind SpeedMPH,Gust SpeedMPH,PrecipitationIn,Events,Conditions,WindDirDegrees,DateUTC
12:54 AM,57.9,55.9,93,30.16,-9999.0,Calm,Calm,-,N/A,,Unknown,0,2013-05-20 04:54:00
1:54 AM,57.9,55.9,93,30.13,-9999.0,Calm,Calm,-,N/A,,Unknown,0,2013-05-20 05:54:00
2:54 AM,57.9,55.9,93,30.11,-9999.0,Calm,Calm,-,N/A,,Unknown,0,2013-05-20 06:54:00
3:54 AM,57.9,55.9,93,30.11,-9999.0,Calm,Calm,-,N/A,,Unknown,0,2013-05-20 07:54:00
4:54 AM,57.0,55.9,96,30.09,-9999.0,Calm,Calm,-,N/A,,Unknown,0,2013-05-20 08:54:00
5:54 AM,57.0,55.9,96,30.09,-9999.0,Calm,Calm,-,N/A,,Unknown,0,2013-05-20 09:54:00
6:54 AM,57.9,55.9,93,30.11,-9999.0,Calm,Calm,-,N/A,,Unknown,0,2013-05-20 10:54:00
7:54 AM,59.0,57.0,93,30.11,-9999.0,Calm,Calm,-,N/A,,Unknown,0,2013-05-20 11:54:00
8:54 AM,60.1,57.9,93,30.12,-9999.0,Calm,Calm,-,N/A,,Unknown,0,2013-05-20 12:54:00
9:54 AM,63.0,59.0,87,30.11,-9999.0,SSW,4.6,-,N/A,,Unknown,210,2013-05-20 13:54:00
10:54 AM,66.9,60.1,79,30.09,-9999.0,Variable,4.6,-,N/A,,Unknown,0,2013-05-20 14:54:00
11:54 AM,71.1,62.1,73,30.06,-9999.0,Variable,4.6,-,N/A,,Unknown,0,2013-05-20 15:54:00
12:54 PM,73.9,62.1,66,30.04,-9999.0,Variable,4.6,-,N/A,,Unknown,0,2013-05-20 16:54:00
1:54 PM,75.9,62.1,62,30.03,-9999.0,Variable,4.6,-,N/A,,Unknown,0,2013-05-20 17:54:00
2:54 PM,77.0,63.0,62,30.01,-9999.0,Variable,5.8,-,N/A,,Unknown,0,2013-05-20 18:54:00
3:54 PM,77.0,62.1,60,29.99,-9999.0,SW,8.1,-,N/A,,Unknown,220,2013-05-20 19:54:00
4:54 PM,79.0,62.1,56,29.97,-9999.0,SW,6.9,-,N/A,,Unknown,220,2013-05-20 20:54:00
5:54 PM,78.1,63.0,60,29.98,-9999.0,SW,6.9,-,N/A,,Unknown,220,2013-05-20 21:54:00
6:54 PM,77.0,63.0,62,29.97,-9999.0,SW,4.6,-,N/A,,Unknown,220,2013-05-20 22:54:00
7:54 PM,73.9,63.0,68,29.96,-9999.0,Calm,Calm,-,N/A,,Unknown,0,2013-05-20 23:54:00
8:54 PM,68.0,64.0,87,29.99,-9999.0,Calm,Calm,-,N/A,,Unknown,0,2013-05-21 00:54:00
9:54 PM,68.0,64.0,87,29.99,-9999.0,Calm,Calm,-,N/A,,Unknown,0,2013-05-21 01:54:00
10:54 PM,66.9,64.0,90,29.98,-9999.0,Calm,Calm,-,N/A,,Unknown,0,2013-05-21 02:54:00
11:54 PM,64.0,62.1,93,29.98,-9999.0,Calm,Calm,-,N/A,,Unknown,0,2013-05-21 03:54:00